Regional Weather Roundup
Issued by NWS

Home | Current Version | Previous Version | Text Only | Print | Product List | Glossary On
Versions: 1 2 3 4 5 6 7 8 9 10 11 12 13 14 15 16 17 18 19 20 21 22 23 24 25 26 27 28 29 30 31 32 33 34 35 36 37 38 39 40 41 42 43 44 45 46 47 48 49 50
956
ASUS43 KDTX 281810
RWRMI
MICHIGAN HOURLY REGIONAL WEATHER ROUNDUP
NATIONAL WEATHER SERVICE DETROIT/PONTIAC MI
ISSUED BY NATIONAL WEATHER SERVICE GRAND RAPIDS MI
200 PM EDT WED JUN 28 2017

NOTE: "FAIR" INDICATES FEW OR NO CLOUDS BELOW 12,000 FEET WITH NO
SIGNIFICANT WEATHER AND/OR OBSTRUCTION TO VISIBILITY.

MIZ047>049-052>055-059>063-066>070-074>076-081>083-281900-
SOUTHEAST LOWER MICHIGAN

CITY           SKY/WX    TMP DP  RH WIND       PRES   REMARKS
ADRIAN         PTSUNNY   76  48  37 SW15G22   30.09F
6HR MIN TEMP:  56; 6HR MAX TEMP:  78;

ALMA           PTSUNNY   74  51  43 S15G28    30.02F
ANN ARBOR      MOSUNNY   75  50  41 S8G18     30.07F
BAD AXE        CLOUDY    73  49  41 SW12G20   30.04F
6HR MIN TEMP:  58; 6HR MAX TEMP:  74;

DETROIT CITY   CLOUDY    75  50  41 SW17      30.08F
6HR MIN TEMP:  61; 6HR MAX TEMP:  75;

DETROIT        CLOUDY    76  49  38 SW13G26   30.08F
6HR MIN TEMP:  59; 6HR MAX TEMP:  77;

FLINT          CLOUDY    73  47  39 S13       30.05F
6HR MIN TEMP:  60; 6HR MAX TEMP:  75;

GROSSE ILE     CLOUDY    73  55  54 SE8       30.08F
6HR MIN TEMP:  61; 6HR MAX TEMP:  73;

HILLSDALE      PTSUNNY   73  46  38 S13G20    30.08S
HOWELL         CLOUDY    74  45  35 S10G17    30.06F
6HR MIN TEMP:  59; 6HR MAX TEMP:  75;


CITY           SKY/WX    TMP DP  RH WIND       PRES   REMARKS
JACKSON        CLOUDY    76  49  38 S14       30.07F
6HR MIN TEMP:  60; 6HR MAX TEMP:  77;

LANSING        CLOUDY    79  51  37 S17       30.04F
6HR MIN TEMP:  59; 6HR MAX TEMP:  79;

MASON          CLOUDY    74  51  44 S8G17     30.05F
MONROE         CLOUDY    76  49  39 SW13G18   30.08F
6HR MIN TEMP:  59; 6HR MAX TEMP:  76;

MT. CLEMENS    PTSUNNY   77  51  41 S16       30.05F
6HR MIN TEMP:  63; 6HR MAX TEMP:  78;

PONTIAC        CLOUDY    75  46  35 SW9G21    30.06F
6HR MIN TEMP:  60; 6HR MAX TEMP:  75;

PORT HOPE        N/A     74  50  42 S6        30.01F
6HR MIN TEMP:  61; 6HR MAX TEMP:  74;

PORT HURON     CLOUDY    73  48  40 S6        30.06F
TRI CITIES     CLOUDY    75  52  44 S13G22    30.01F
6HR MIN TEMP:  59; 6HR MAX TEMP:  75;

YPSILANTI      CLOUDY    79  48  33 S17       30.07F
6HR MIN TEMP:  60; 6HR MAX TEMP:  79;

$$
MIZ043>046-050>051-056>058-064>065-071>073-077>080-281900-
SOUTHWEST LOWER MICHIGAN

CITY           SKY/WX    TMP DP  RH WIND       PRES   REMARKS
BATTLE CREEK   CLOUDY    75  51  43 SW16      30.05F
6HR MIN TEMP:  60; 6HR MAX TEMP:  77;

BENTON HARBOR  CLOUDY    74  53  48 S9G23     30.00F
6HR MIN TEMP:  62; 6HR MAX TEMP:  75; 6HR PCP: TRACE;

BIG RAPIDS     PTSUNNY   71  50  47 S15G23    29.96F
6HR MIN TEMP:  57; 6HR MAX TEMP:  73;

COLDWATER      CLOUDY    75  47  36 S6        30.07S
6HR MIN TEMP:  63; 6HR MAX TEMP:  75;

HOLLAND        CLOUDY    73  54  51 S17G24    29.99F
6HR MIN TEMP:  61; 6HR MAX TEMP:  75;

GRAND RAPIDS   CLOUDY    73  54  51 S14G23    30.00F
6HR MIN TEMP:  61; 6HR MAX TEMP:  74;

KALAMAZOO      CLOUDY    75  49  39 S17       30.04R
6HR MIN TEMP:  60; 6HR MAX TEMP:  76;

MARSHALL       CLOUDY    75  50  41 S12G21    30.06R
6HR MIN TEMP:  60; 6HR MAX TEMP:  76;

MOUNT PLEASANT PTSUNNY   74  49  39 S12G18    29.99F
6HR MIN TEMP:  61; 6HR MAX TEMP:  75;

MUSKEGON       CLOUDY    73  55  53 S23G31    29.94F
6HR MIN TEMP:  67; 6HR MAX TEMP:  74; 6HR PCP: TRACE;

STURGIS        CLOUDY    75  54  48 SW13G18   30.04F
6HR MIN TEMP:  59; 6HR MAX TEMP:  75;

$$
MIZ016>042-281900-
NORTHERN LOWER MICHIGAN

CITY           SKY/WX    TMP DP  RH WIND       PRES   REMARKS
ALPENA         CLOUDY    76  51  41 SW13G21   29.95F
6HR MIN TEMP:  59; 6HR MAX TEMP:  76;

BEAVER ISLAND  CLOUDY    73  54  49 S12G18    29.87F
BELLAIRE       CLOUDY    74  52  46 S12G21    29.91S
6HR MIN TEMP:  58; 6HR MAX TEMP:  75;

CADILLAC       CLOUDY    70  53  53 S16G23    29.95F
CHARLEVOIX     CLOUDY    74  54  49 S9G18     29.92F
6HR MIN TEMP:  61; 6HR MAX TEMP:  74;

GAYLORD        MOSUNNY   73  51  46 S16G23    29.94F
6HR MIN TEMP:  59; 6HR MAX TEMP:  74;

HOUGHTON LAKE  CLOUDY    73  51  46 S14G22    29.97F
6HR MIN TEMP:  59; 6HR MAX TEMP:  73;

MANISTEE       PTSUNNY   65  58  78 S8G16     29.88F
OSCODA         CLOUDY    75  51  42 SW17G25   29.98F
6HR MIN TEMP:  58; 6HR MAX TEMP:  75;

PELLSTON       CLOUDY    74  51  44 S13       29.90F
6HR MIN TEMP:  63; 6HR MAX TEMP:  74;

TRAVERSE CITY  CLOUDY    73  53  49 S10G22    29.88F
6HR MIN TEMP:  62; 6HR MAX TEMP:  76;

LUDINGTON      LGT RAIN  62  59  90 S13G18    29.88F
6HR MIN TEMP:  62; 6HR MAX TEMP:  71; 6HR PCP:  0.02;

$$
MIZ007>008-015-281900-
EASTERN UPPER MICHIGAN

CITY           SKY/WX    TMP DP  RH WIND       PRES   REMARKS
KINROSS        CLOUDY    73  51  46 S13G18    29.90F
6HR MIN TEMP:  60; 6HR MAX TEMP:  74;

MACKINAC ISLAN CLOUDY    72  53  50 S9        29.90F
6HR MIN TEMP:  62; 6HR MAX TEMP:  72;

NEWBERRY       CLOUDY    68  54  61 S16       29.87F
6HR MIN TEMP:  56; 6HR MAX TEMP:  68;

S. S. MARIE    CLOUDY    75  50  41 SW13      29.89F
6HR MIN TEMP:  58; 6HR MAX TEMP:  75;

$$
MIZ004>006-011>014-085-281900-
CENTRAL UPPER MICHIGAN

CITY           SKY/WX    TMP DP  RH WIND       PRES   REMARKS
MANISTIQUE     CLOUDY    63  56  76 S15G24    29.85F
6HR MIN TEMP:  58; 6HR MAX TEMP:  64;

ESCANABA       CLOUDY    63  57  81 S12G18    29.82S
6HR MIN TEMP:  59; 6HR MAX TEMP:  67; 6HR PCP: TRACE;

MENOMINEE      LGT RAIN  64  59  82 S6        29.82R
6HR MIN TEMP:  62; 6HR MAX TEMP:  67; 6HR PCP:  0.01;

SAWYER-GWINN   CLOUDY    64  55  72 S21       29.77F
$$
MIZ001>003-009>011-084-281900-
WESTERN UPPER MICHIGAN

CITY           SKY/WX    TMP DP  RH WIND       PRES   REMARKS
IRON MOUNTAIN  CLOUDY    63  57  81 S9        29.78R
6HR MIN TEMP:  56; 6HR MAX TEMP:  65; 6HR PCP:  0.05;

HOUGHTON       CLOUDY    69  54  58 SE8       29.72S
6HR MIN TEMP:  58; 6HR MAX TEMP:  69;

COPPER HARBOR    N/A     69  52  54 S8G21     29.71F
6HR MIN TEMP:  63; 6HR MAX TEMP:  71;

IRONWOOD       LGT RAIN  62  58  86 S9G20     29.68F
6HR MIN TEMP:  60; 6HR MAX TEMP:  64; 6HR PCP: TRACE;

$$

ABBREVIATIONS USED IN REMARKS
   TC - TEMPERATURE IN CELSIUS
  WCI - WIND CHILL INDEX
   HX - HEAT INDEX
  VSB - VISIBILITY





USA.gov is the U.S. government's official web portal to all federal, state and local government web resources and services.